Location: Rumah Dana
(3.1167°N, 113.0167°E)
Time: 12:50:55
(UTC+00:00)

Cosmos 1943 Rocket - Pass Details

Date: 03 August 2024
Orbit: 813 x 841 km, 71.0° (Epoch: 07 September)

Event Time Altitude Azimuth Distance (km) Brightness Sun altitude
Rises 21:36:09 0° 358° (N) 3,320 5.5 -12.9°
Reaches altitude 10° 21:38:42 10° 6° (N) 2,390 4.9 -12.3°
Maximum altitude 21:43:47 40° 74° (ENE) 1,183 3.7 -11.0°
Drops below altitude 10° 21:48:54 10° 143° (SE) 2,403 4.8 -9.8°
Sets 21:51:27 0° 150° (SSE) 3,339 5.5 -9.2°
